Regional Weather Roundup
Issued by NWS San Diego, CA

Current Version |  Previous Version |  Text Only |  Print | Product List |  Glossary On
Versions: 1 2 3 4 5 6 7 8 9 10 11 12 13 14 15 16 17 18 19 20 21 22 23 24 25 26 27 28
648
ASUS46 KSGX 280510
RWRSGX

SAN DIEGO HOURLY WEATHER ROUNDUP
NATIONAL WEATHER SERVICE SAN DIEGO CA
1000 PM PDT MON MAY 27 2024

NOTE: "FAIR" INDICATES FEW OR NO CLOUDS BELOW 12,000 FEET WITH NO
SIGNIFICANT WEATHER AND/OR OBSTRUCTIONS TO VISIBILITY.

CAZ042-043-060-061-PZZ750-775-280600-

GREATER SAN DIEGO AREA

CITY           SKY/WX    TMP DP  RH WIND       PRES   REMARKS
SAN DIEGO AP   CLOUDY    60  53  77 NW5       30.06R
BROWN FIELD    CLOUDY    58  53  84 CALM      30.04R
MIRAMAR MCAS   CLOUDY    56  53  90 N3        30.04R
MONTGOMERY FLD CLOUDY    59  52  77 N5        30.04R
GILLESPIE FLD  MOCLDY    57  52  82 NW5       30.04R
LEMON GROVE      N/A     56  53  88 CALM      30.02R

$$

NORTH SAN DIEGO COUNTY

CITY           SKY/WX    TMP DP  RH WIND       PRES   REMARKS
OCEANSIDE AP   CLOUDY    58  54  86 CALM      30.04R
OCEANSIDE HBR    N/A     60  54  82 CALM      30.11R
VISTA            N/A     59  55  84 CALM      30.03R
CARLSBAD       CLOUDY    58  52  80 VRB3      30.04R
ENCINITAS        N/A     58  55  89 CALM        N/A
LA JOLLA SCRIP   N/A     58  50  75 CALM      30.04R
FALLBROOK      CLOUDY    57  55  94 CALM      30.05R
ESCONDIDO        N/A     59  53  80 W5        30.04R
SAN MARCOS       N/A     58  54  85 CALM      30.02R
RANCHO BERNARD   N/A     57  53  85 CALM      30.03R
POWAY            N/A     57  52  85 CALM      30.06R

$$

EAST SAN DIEGO COUNTY

CITY           SKY/WX    TMP DP  RH WIND       PRES   REMARKS
RAMONA         CLEAR     51  49  92 W6        30.04R
SANTEE           N/A     57  53  85 CALM      30.00R
LA MESA          N/A     56  52  86 CALM      29.98R
EL CAJON         N/A     59  54  84 CALM      29.92R
ALPINE           N/A     57  52  82 CALM      30.20R
DESCANSO N       N/A     51  39  64 N5        30.04R

$$

ORANGE COUNTY AND THE LOS ANGELES BASIN

CITY           SKY/WX    TMP DP  RH WIND       PRES   REMARKS
JOHN WAYNE AP  CLOUDY    60  53  77 SW7       30.05R
LAGUNA BEACH     N/A     61  57  86 CALM      30.04R
LAKE FOREST FR   N/A     57  52  81 CALM      29.91R
SANTA ANA        N/A     59  55  87 CALM      30.02R
HUNTINGTON BCH   N/A     60  56  88 CALM      30.04R
LOS ALAMITOS   CLEAR     58  55  88 S3        30.01R
FULLERTON      CLEAR     60  56  86 S5        30.03R
LONG BEACH     CLEAR     61  54  77 NW7       30.04R
L.A. AP        CLOUDY    57  54  89 W7        30.05R

$$

THE INLAND EMPIRE

CITY           SKY/WX    TMP DP  RH WIND       PRES   REMARKS
CORONA         CLEAR     60  55  83 W7        30.04R
UPLAND AP      FAIR      61  55  82 W6        30.03R
CHINO          CLEAR     58  52  80 W6        30.04R
ONTARIO        CLEAR     61  51  70 SW8       30.03R
SAN BERNARDINO CLEAR     64  51  62 W7        30.04R
RIVERSIDE AP   CLEAR     60  54  80 W7        30.03R
MORENO VALLEY    N/A     63  57  82 CALM      29.95S
MARCH ARB      CLEAR     61  54  76 CALM      30.03R
HORSETHIEF CYN   N/A     60  53  77 CALM      29.99R
PERRIS           N/A     65  55  70 NW2       30.04R
LAKE ELSINORE    N/A     64  55  71 CALM      29.94R
HEMET AP         N/A     59  54  82 SW9       30.04R
FRENCH VALLEY  CLEAR     57  54  88 S3        30.04R
TEMECULA         N/A     60  55  83 S1        30.04R

$$

SAN BERNARDINO AND RIVERSIDE COUNTY MOUNTAINS

CITY           SKY/WX    TMP DP  RH WIND       PRES   REMARKS
BIG BEAR AP    CLEAR     46  28  49 CALM      30.25S
BIG BEAR LAKE    N/A     50  30  45 CALM      29.99R
WRIGHTWOOD       N/A     55  37  49 CALM      29.78R
ANGELUS OAKS     N/A     55  30  38 CALM      29.87R
IDYLLWILD        N/A     51  34  52 CALM      29.89R

$$

SOUTHERN DESERT INCLUDING THE COACHELLA VALLEY

CITY           SKY/WX    TMP DP  RH WIND       PRES   REMARKS
PALM SPRINGS   CLEAR     85  48  27 NW12      29.86R
THOUSAND PALMS   N/A     81  53  37 N8        29.80R
THERMAL        CLEAR     85  50  29 NW17      29.81R
BORREGO AP     CLEAR     81  48  32 NW16      29.87R
OCOTILLO WELLS   N/A     88  39  17 NW12      29.78S
CANEBRAKE        N/A     83  23  11 NW2       29.79R
BLYTHE         CLEAR     86  27  11 SW6       29.83R
IMPERIAL AP    CLEAR     83  40  21 SW10      29.82R
EL CENTRO NAS    N/A    N/A N/A N/A W16       29.83R

$$

UPPER DESERT

CITY           SKY/WX    TMP DP  RH WIND       PRES   REMARKS
VICTORVILLE AP MOCLDY    68  36  30 S9        30.06R
HESPERIA         N/A     67  48  50 SW1       29.77R
APPLE VALLEY     N/A     66  42  41 CALM      29.97R
PALMDALE       CLEAR     69  33  26 W7        30.03R
LANCASTER      CLEAR     67  47  48 SW15      30.02R
EDWARDS AFB    CLEAR     70  44  38 SW17      29.98R
DAGGETT        NOT AVBL
29 PALMS N     CLEAR     81  32  17 SW10      29.99R
29 PALMS JTNP    N/A     83  36  18 CALM      29.77R
NEEDLES        CLEAR     88  20   8 SW9       29.86R

$$

REGIONAL REPORTS

CITY           SKY/WX    TMP DP  RH WIND       PRES   REMARKS
SANTA BARBARA  CLEAR     57  56  96 SE5       30.02R
SANDBERG       CLEAR     62  42  47 W12       30.13S
LAS VEGAS NV   CLEAR     89  28  11 S5        29.91R
PHOENIX AZ     CLEAR     90  34  13 N3        29.85R
TIJUANA        CLOUDY    57  54  88 W7        30.07R

$$

OFFSHORE ISLANDS

CITY           SKY/WX    TMP DP  RH WIND       PRES   REMARKS
CATALINA ARPT  FOG       50  50 100 SW3       30.05S VSB<1/4
SAN CLEMENTE I CLOUDY    58  32  37 NW7       30.07
SAN NICOLAS IS CLOUDY    52  50  93 NW12      30.05R FOG

$$

MARINE AND OFFSHORE BUOY REPORTS

STATION/POSITION SKY/WX   TEMP    WIND        PRES    VSBY  SWELL
                          AIR SEA DIR/SP/G                  HT/PER/DIR
                          (F)     (DEG/KT/KT) (MB)    (MI)  (FT/S/D)
TANNER BANKS               56 59  320/ 16/ 19 1018.0R         3/320/ 8
S CLEMENTE BASIN           58 61  300/ 10/ 14 1016.6R         3/210/12
SAN NICOLAS IS.            55 57                N/A           2/190/13
SO. S. ROSA ISLA           54 55  310/ 19/ 23 1016.8R
W. S. BARBARA CH           53 53  320/ 19/ 25 1016.9R         3/310/ 8
M. S. BARBARA CH           57 59  260/ 10/ 12 1015.4R
S. MONICA BASIN            56 61  270/  4/  6 1017.7R         2/190/12
S PEDRO CHANNEL               59                N/A           2/170/13
OCEANSIDE OFFSHR              64                N/A           2/190/12
TORREY PINES OTR              63                N/A           2/210/13
SAN DIEGO BAY                 66              1017.2
IMPERIAL BEACH                62                N/A           2/240/18
POINT LOMA SOUTH                                N/A           2/200/13

$$